EW0642 Weather Reports


Display with metric or nautical units.
time (UTC)temp
F
wind
direction
speed
MPH
gust
MPH
rain 1hr
in
rain 24hr
in
rain mn
in
humidity
%
barometer
mb
20260831014504 80 193 1.0 5.0 0.00 0.00 0.00 85 1019.1
20260831014026 80 201 2.0 5.0 0.00 0.00 0.00 85 1019.1
20260831013505 80 199 2.0 5.0 0.00 0.00 0.00 85 1019.1
20260831013006 80 179 2.0 7.0 0.00 0.00 0.00 85 1019.1
20260831012526 80 175 1.0 7.0 0.00 0.00 0.00 85 1019.1
20260831012006 81 194 1.0 5.0 0.00 0.00 0.00 85 1019.0
20260831011505 81 181 1.0 5.0 0.00 0.00 0.00 85 1019.0
20260831011004 81 135 1.0 4.0 0.00 0.00 0.00 85 1018.9
20260831010526 81 141 2.0 7.0 0.00 0.00 0.00 84 1018.8
20260831010026 81 152 2.0 7.0 0.00 0.00 0.00 84 1018.8
20260831005526 81 161 1.0 6.0 0.00 0.00 0.00 84 1018.7
20260831005004 81 144 1.0 6.0 0.00 0.00 0.00 84 1018.6
20260831004526 81 123 1.0 5.0 0.00 0.00 0.00 83 1018.7
20260831004026 81 148 1.0 5.0 0.00 0.00 0.00 83 1018.7
20260831003504 81 152 1.0 4.0 0.00 0.00 0.00 83 1018.7
20260831003026 81 123 1.0 4.0 0.00 0.00 0.00 82 1018.7
20260831002526 81 125 1.0 4.0 0.00 0.00 0.00 82 1018.6
20260831002027 81 153 1.0 6.0 0.00 0.00 0.00 82 1018.5
20260831001526 81 148 1.0 6.0 0.00 0.00 0.00 82 1018.3
20260831001026 82 120 2.0 5.0 0.00 0.00 0.00 81 1018.2
20260831000505 82 118 1.0 4.0 0.00 0.00 0.00 81 1018.3
20260831000005 82 139 1.0 3.0 0.00 0.00 0.00 81 1018.3
20260830235526 82 147 1.0 3.0 0.00 0.00 0.00 81 1018.1
20260830235004 82 129 0.0 3.0 0.00 0.00 0.00 80 1018.1
20260830234526 82 115 1.0 4.0 0.00 0.00 0.00 80 1018.2
20260830234004 82 135 1.0 4.0 0.00 0.00 0.00 80 1018.1
20260830233526 82 132 1.0 4.0 0.00 0.00 0.00 79 1018.1
20260830233005 82 121 1.0 6.0 0.00 0.00 0.00 79 1018.1
20260830232505 83 114 1.0 6.0 0.00 0.00 0.00 79 1018.2
20260830232026 83 117 1.0 3.0 0.00 0.00 0.00 78 1018.2
20260830231504 83 130 1.0 4.0 0.00 0.00 0.00 78 1018.3
20260830231005 83 121 2.0 7.0 0.00 0.00 0.00 78 1018.3
20260830230504 84 131 2.0 7.0 0.00 0.00 0.00 77 1018.3
20260830230006 84 135 2.0 7.0 0.00 0.00 0.00 76 1018.3
20260830225527 84 137 1.0 6.0 0.00 0.00 0.00 76 1018.4
20260830225026 84 122 2.0 7.0 0.00 0.00 0.00 76 1018.3
20260830224505 85 115 2.0 7.0 0.00 0.00 0.00 75 1018.3
20260830224025 85 133 1.0 5.0 0.00 0.00 0.00 75 1018.3
20260830223505 85 124 1.0 5.0 0.00 0.00 0.00 75 1018.3
20260830223025 85 113 2.0 5.0 0.00 0.00 0.00 75 1018.2
20260830222505 85 115 2.0 5.0 0.00 0.00 0.00 74 1018.2
20260830222005 85 134 1.0 4.0 0.00 0.00 0.00 74 1018.1
20260830221526 85 119 1.0 4.0 0.00 0.00 0.00 74 1018.2
20260830221005 85 112 1.0 4.0 0.00 0.00 0.00 73 1018.2
20260830220504 85 120 1.0 6.0 0.00 0.00 0.00 73 1018.2
20260830220005 85 128 1.0 6.0 0.00 0.00 0.00 72 1018.1
20260830215505 85 122 1.0 7.0 0.00 0.00 0.00 72 1018.0
20260830215026 86 114 2.0 7.0 0.00 0.00 0.00 71 1018.0
20260830214505 86 119 2.0 7.0 0.00 0.00 0.00 70 1018.0
20260830214005 86 120 2.0 7.0 0.00 0.00 0.00 69 1018.0
20260830213504 86 128 2.0 5.0 0.00 0.00 0.00 68 1017.9
20260830213005 87 142 1.0 4.0 0.00 0.00 0.00 65 1017.9
20260830212526 87 157 1.0 6.0 0.00 0.00 0.00 65 1017.9
20260830212004 88 148 1.0 6.0 0.00 0.00 0.00 64 1017.9
20260830211526 88 176 1.0 4.0 0.00 0.00 0.00 64 1018.0
20260830211026 88 194 2.0 7.0 0.00 0.00 0.00 61 1017.9
20260830210505 88 204 2.0 7.0 0.00 0.00 0.00 61 1018.0
20260830210004 88 231 2.0 6.0 0.00 0.00 0.00 61 1018.0
20260830205506 89 232 2.0 6.0 0.00 0.00 0.00 59 1018.1
20260830205026 89 242 3.0 8.0 0.00 0.00 0.00 59 1018.2
20260830204525 89 225 4.0 8.0 0.00 0.00 0.00 59 1018.1
20260830204027 89 201 3.0 8.0 0.00 0.00 0.00 59 1018.2
20260830203525 89 200 3.0 11.0 0.00 0.00 0.00 60 1018.2
20260830203005 89 187 4.0 11.0 0.00 0.00 0.00 58 1018.1
20260830202505 89 182 3.0 9.0 0.00 0.00 0.00 58 1018.2
20260830202005 89 185 3.0 8.0 0.00 0.00 0.00 58 1018.1
20260830201504 89 182 4.0 8.0 0.00 0.00 0.00 58 1018.1
20260830201005 89 162 3.0 8.0 0.00 0.00 0.00 58 1018.2
20260830200526 89 166 3.0 9.0 0.00 0.00 0.00 57 1018.2
20260830200026 89 191 3.0 9.0 0.00 0.00 0.00 57 1018.3
20260830195505 90 181 3.0 8.0 0.00 0.00 0.00 56 1018.3
20260830195005 89 176 3.0 10.0 0.00 0.00 0.00 57 1018.4
20260830194505 90 209 3.0 10.0 0.00 0.00 0.00 58 1018.4
20260830194026 90 200 3.0 10.0 0.00 0.00 0.00 58 1018.6
20260830193506 90 198 3.0 10.0 0.00 0.00 0.00 58 1018.6
20260830193005 89 193 3.0 11.0 0.00 0.00 0.00 63 1018.7
20260830192505 88 213 3.0 11.0 0.00 0.00 0.00 60 1018.8
20260830192005 88 228 2.0 9.0 0.00 0.00 0.00 61 1018.9
20260830191525 88 198 2.0 9.0 0.00 0.00 0.00 62 1019.0
20260830191005 88 179 3.0 11.0 0.00 0.00 0.00 61 1019.1
20260830190525 88 176 3.0 11.0 0.00 0.00 0.00 61 1019.2
20260830190005 88 198 4.0 12.0 0.00 0.00 0.00 63 1019.2
20260830185504 87 192 3.0 12.0 0.00 0.00 0.00 60 1019.3
20260830185005 87 185 3.0 9.0 0.00 0.00 0.00 61 1019.4
20260830184504 87 192 4.0 9.0 0.00 0.00 0.00 60 1019.5
20260830184004 88 187 4.0 10.0 0.00 0.00 0.00 60 1019.5
20260830183505 87 184 4.0 11.0 0.00 0.00 0.00 62 1019.6
20260830183004 87 188 4.0 14.0 0.00 0.00 0.00 62 1019.7
20260830182527 87 191 5.0 14.0 0.00 0.00 0.00 63 1019.7
20260830182004 87 202 4.0 11.0 0.00 0.00 0.00 62 1019.7
20260830181526 88 205 3.0 11.0 0.00 0.00 0.00 61 1019.9
20260830181025 88 192 3.0 12.0 0.00 0.00 0.00 61 1019.9
20260830180525 88 171 3.0 12.0 0.00 0.00 0.00 62 1020.0
20260830180028 88 192 3.0 10.0 0.00 0.00 0.00 61 1020.1
20260830175505 88 222 4.0 10.0 0.00 0.00 0.00 63 1020.1
20260830175026 88 189 4.0 10.0 0.00 0.00 0.00 61 1020.1
20260830174505 88 165 4.0 13.0 0.00 0.00 0.00 60 1020.2
20260830174027 88 172 4.0 13.0 0.00 0.00 0.00 60 1020.4
20260830173527 89 185 3.0 9.0 0.00 0.00 0.00 60 1020.4
20260830173025 88 195 4.0 10.0 0.00 0.00 0.00 60 1020.5
20260830172526 88 203 3.0 10.0 0.00 0.00 0.00 61 1020.6
20260830172004 88 201 3.0 10.0 0.00 0.00 0.00 61 1020.7
20260830171526 88 188 3.0 10.0 0.00 0.00 0.00 62 1020.6
20260830171026 88 171 3.0 10.0 0.00 0.00 0.00 62 1020.8
20260830170526 87 169 5.0 12.0 0.00 0.00 0.00 62 1020.8
20260830170025 87 167 4.0 12.0 0.00 0.00 0.00 62 1020.8
20260830165506 87 140 3.0 12.0 0.00 0.00 0.00 64 1020.9
20260830165004 87 213 4.0 12.0 0.00 0.00 0.00 65 1021.0
20260830164527 87 234 4.0 9.0 0.00 0.00 0.00 64 1021.0
20260830164026 87 171 4.0 10.0 0.00 0.00 0.00 64 1021.0
20260830163526 86 155 4.0 12.0 0.00 0.00 0.00 65 1021.1
20260830163026 87 160 4.0 12.0 0.00 0.00 0.00 64 1021.1
20260830162526 86 205 4.0 10.0 0.00 0.00 0.00 66 1021.2
20260830162026 86 202 3.0 8.0 0.00 0.00 0.00 66 1021.3
20260830161504 86 176 3.0 7.0 0.00 0.00 0.00 67 1021.3
20260830161004 85 195 2.0 8.0 0.00 0.00 0.00 67 1021.4
20260830160526 85 192 3.0 12.0 0.00 0.00 0.00 68 1021.5
20260830160004 85 204 4.0 12.0 0.00 0.00 0.00 66 1021.5
20260830155506 86 196 4.0 10.0 0.00 0.00 0.00 67 1021.5
20260830155025 86 183 3.0 10.0 0.00 0.00 0.00 67 1021.6
20260830154526 86 199 2.0 6.0 0.00 0.00 0.00 69 1021.5
20260830154025 85 196 2.0 6.0 0.00 0.00 0.00 69 1021.5
20260830153525 85 168 2.0 9.0 0.00 0.00 0.00 69 1021.4
20260830153027 84 159 3.0 9.0 0.00 0.00 0.00 71 1021.5
20260830152504 84 155 3.0 9.0 0.00 0.00 0.00 71 1021.4
20260830152005 83 145 3.0 9.0 0.00 0.00 0.00 73 1021.4
20260830151505 82 139 3.0 9.0 0.00 0.00 0.00 73 1021.4
20260830151026 82 139 3.0 10.0 0.00 0.00 0.00 74 1021.4
20260830150504 82 129 3.0 10.0 0.00 0.00 0.00 74 1021.3
20260830150006 82 137 2.0 10.0 0.00 0.00 0.00 74 1021.3
20260830145505 83 156 2.0 7.0 0.00 0.00 0.00 74 1021.4
20260830145004 83 172 2.0 8.0 0.00 0.00 0.00 77 1021.4
20260830144526 82 163 3.0 10.0 0.00 0.00 0.00 76 1021.5
20260830144025 81 164 3.0 10.0 0.00 0.00 0.00 77 1021.5
20260830143526 81 156 3.0 9.0 0.00 0.00 0.00 78 1021.6
20260830143004 80 172 4.0 9.0 0.00 0.00 0.00 79 1021.6
20260830142505 80 178 4.0 11.0 0.00 0.00 0.00 79 1021.7
20260830142005 80 176 3.0 11.0 0.00 0.00 0.00 79 1021.6
20260830141504 80 188 2.0 8.0 0.00 0.00 0.00 79 1021.7
20260830141005 81 182 3.0 8.0 0.00 0.00 0.00 79 1021.6
20260830140525 80 174 4.0 11.0 0.00 0.00 0.00 80 1021.7
20260830140026 80 175 4.0 11.0 0.00 0.00 0.00 81 1021.6
20260830135525 79 181 3.0 11.0 0.00 0.00 0.00 82 1021.7
20260830135026 78 178 2.0 8.0 0.00 0.00 0.00 85 1021.7
20260830134526 78 188 4.0 11.0 0.00 0.00 0.00 85 1021.8
20260830134025 78 195 5.0 13.0 0.00 0.00 0.00 84 1022.0
20260830133525 78 198 3.0 13.0 0.00 0.00 0.00 84 1022.1
20260830133004 78 189 2.0 10.0 0.00 0.00 0.00 85 1022.2
20260830132504 77 164 2.0 9.0 0.00 0.00 0.00 87 1022.2
20260830132004 76 183 3.0 11.0 0.00 0.00 0.00 88 1022.4
20260830131505 76 184 3.0 11.0 0.00 0.00 0.00 89 1022.5
20260830131025 76 173 3.0 12.0 0.00 0.00 0.00 89 1022.5
20260830130526 75 175 3.0 12.0 0.00 0.00 0.00 90 1022.6
20260830130025 75 176 4.0 10.0 0.00 0.00 0.00 90 1022.7
20260830125525 75 174 3.0 10.0 0.00 0.00 0.00 91 1022.7
20260830125026 75 173 2.0 7.0 0.00 0.00 0.00 91 1022.6
20260830124525 75 174 3.0 9.0 0.00 0.00 0.00 93 1022.6
20260830124005 74 190 3.0 9.0 0.00 0.00 0.00 93 1022.6
20260830123505 74 191 2.0 8.0 0.00 0.00 0.00 94 1022.7
20260830123005 74 170 1.0 4.0 0.00 0.00 0.00 95 1022.7
20260830122526 73 188 2.0 6.0 0.00 0.00 0.00 95 1022.7
20260830122004 73 179 2.0 6.0 0.00 0.00 0.00 95 1022.7
20260830121505 73 165 2.0 8.0 0.00 0.00 0.00 95 1022.8
20260830121026 72 162 2.0 8.0 0.00 0.00 0.00 95 1022.7
20260830120526 72 181 2.0 7.0 0.00 0.00 0.00 96 1022.7
20260830120025 71 172 2.0 7.0 0.00 0.00 0.00 96 1022.8
20260830115506 71 167 2.0 7.0 0.00 0.00 0.00 96 1022.7
20260830115025 71 173 2.0 6.0 0.00 0.00 0.00 96 1022.7
20260830114525 70 171 1.0 6.0 0.00 0.00 0.00 96 1022.6
20260830114006 70 166 1.0 4.0 0.00 0.00 0.00 96 1022.7
20260830113505 70 163 1.0 5.0 0.00 0.00 0.00 96 1022.7
20260830113005 70 170 2.0 6.0 0.00 0.00 0.00 96 1022.7
20260830112525 70 190 2.0 8.0 0.00 0.00 0.00 96 1022.8
20260830112026 69 209 2.0 8.0 0.00 0.00 0.00 96 1022.9
20260830111504 69 197 1.0 6.0 0.00 0.00 0.00 95 1022.9
20260830111005 68 189 1.0 6.0 0.00 0.00 0.00 96 1022.7
20260830110525 68 180 0.0 3.0 0.00 0.00 0.00 95 1022.7
20260830110005 67 0 0.0 0.0 0.00 0.00 0.00 95 1022.6
20260830105526 67 0 0.0 0.0 0.00 0.00 0.00 95 1022.7
20260830105025 67 0 0.0 0.0 0.00 0.00 0.00 95 1022.7
20260830104506 67 0 0.0 0.0 0.00 0.00 0.00 95 1022.7
20260830104004 67 0 0.0 0.0 0.00 0.00 0.00 95 1022.6
20260830103505 67 0 0.0 0.0 0.00 0.00 0.00 95 1022.6
20260830103026 67 0 0.0 0.0 0.00 0.00 0.00 95 1022.5
20260830102504 67 0 0.0 0.0 0.00 0.00 0.00 95 1022.5
20260830102005 67 0 0.0 0.0 0.00 0.00 0.00 95 1022.5
20260830101505 66 0 0.0 0.0 0.00 0.00 0.00 95 1022.6
20260830101025 66 0 0.0 0.0 0.00 0.00 0.00 95 1022.6
20260830100525 66 0 0.0 0.0 0.00 0.00 0.00 95 1022.5
20260830100026 66 209 0.0 2.0 0.00 0.00 0.00 95 1022.5
20260830095504 66 209 0.0 2.0 0.00 0.00 0.00 95 1022.5
20260830095025 65 209 0.0 1.0 0.00 0.00 0.00 95 1022.6
20260830094504 65 0 0.0 0.0 0.00 0.00 0.00 95 1022.6
20260830094025 65 0 0.0 0.0 0.00 0.00 0.00 94 1022.6
20260830093525 65 0 0.0 0.0 0.00 0.00 0.00 94 1022.6
20260830093004 65 0 0.0 0.0 0.00 0.00 0.00 94 1022.6
20260830092527 65 0 0.0 0.0 0.00 0.00 0.00 94 1022.5
20260830092025 65 0 0.0 0.0 0.00 0.00 0.00 94 1022.5
20260830091526 65 0 0.0 0.0 0.00 0.00 0.00 94 1022.3
20260830091004 65 0 0.0 0.0 0.00 0.00 0.00 94 1022.2
20260830090525 65 0 0.0 0.0 0.00 0.00 0.00 94 1022.2
20260830090005 65 0 0.0 0.0 0.00 0.00 0.00 94 1022.2
20260830085525 65 0 0.0 0.0 0.00 0.00 0.00 94 1022.2
20260830085026 65 0 0.0 0.0 0.00 0.00 0.00 94 1022.3
20260830084504 65 0 0.0 0.0 0.00 0.00 0.00 94 1022.3
20260830084026 64 0 0.0 0.0 0.00 0.00 0.00 94 1022.4
20260830083525 64 0 0.0 0.0 0.00 0.00 0.00 94 1022.5
20260830083025 64 0 0.0 0.0 0.00 0.00 0.00 94 1022.6
20260830082525 64 0 0.0 0.0 0.00 0.00 0.00 94 1022.6
20260830082025 64 0 0.0 0.0 0.00 0.00 0.00 94 1022.6
20260830081526 64 0 0.0 0.0 0.00 0.00 0.00 94 1022.5
20260830081004 64 0 0.0 0.0 0.00 0.00 0.00 94 1022.5
20260830080526 64 0 0.0 0.0 0.00 0.00 0.00 94 1022.4
20260830080004 64 0 0.0 0.0 0.00 0.00 0.00 94 1022.5
20260830075504 64 0 0.0 0.0 0.00 0.00 0.00 94 1022.4
20260830075004 64 0 0.0 0.0 0.00 0.00 0.00 94 1022.5
20260830074525 64 0 0.0 0.0 0.00 0.00 0.00 94 1022.5
20260830074004 64 0 0.0 0.0 0.00 0.00 0.00 93 1022.5
20260830073525 64 0 0.0 0.0 0.00 0.00 0.00 93 1022.6
20260830073025 64 0 0.0 0.0 0.00 0.00 0.00 93 1022.6
20260830072525 64 0 0.0 0.0 0.00 0.00 0.00 93 1022.6
20260830072005 64 0 0.0 0.0 0.00 0.00 0.00 93 1022.7
20260830071525 64 0 0.0 0.0 0.00 0.00 0.00 93 1022.7
20260830071004 64 0 0.0 0.0 0.00 0.00 0.00 93 1022.7
20260830070504 64 0 0.0 0.0 0.00 0.00 0.00 93 1022.7
20260830070005 64 0 0.0 0.0 0.00 0.00 0.00 93 1022.8
20260830065526 64 0 0.0 0.0 0.00 0.00 0.00 93 1022.7
20260830065025 64 0 0.0 0.0 0.00 0.00 0.00 93 1022.7
20260830064526 64 0 0.0 0.0 0.00 0.00 0.00 93 1022.7
20260830064005 64 0 0.0 0.0 0.00 0.00 0.00 93 1022.7
20260830063525 64 0 0.0 0.0 0.00 0.00 0.00 93 1022.7
20260830063005 64 0 0.0 0.0 0.00 0.00 0.00 93 1022.8
20260830062504 64 0 0.0 0.0 0.00 0.00 0.00 93 1022.9
20260830062026 64 0 0.0 0.0 0.00 0.00 0.00 93 1022.9
20260830061525 64 0 0.0 0.0 0.00 0.00 0.00 93 1023.0
20260830061005 64 0 0.0 0.0 0.00 0.00 0.00 92 1023.0
20260830060525 64 0 0.0 0.0 0.00 0.00 0.00 92 1023.1
20260830060004 64 0 0.0 0.0 0.00 0.00 0.00 92 1023.1
20260830055505 64 0 0.0 0.0 0.00 0.00 0.00 92 1023.1
20260830055004 64 0 0.0 0.0 0.00 0.00 0.00 92 1023.2
20260830054525 64 0 0.0 0.0 0.00 0.00 0.00 92 1023.2
20260830054025 64 0 0.0 0.0 0.00 0.00 0.00 92 1023.2
20260830053525 64 0 0.0 0.0 0.00 0.00 0.00 92 1023.2
20260830053004 64 0 0.0 0.0 0.00 0.00 0.00 91 1023.3
20260830052526 64 0 0.0 0.0 0.00 0.00 0.00 91 1023.2
20260830052026 64 0 0.0 0.0 0.00 0.00 0.00 91 1023.2
20260830051504 64 0 0.0 0.0 0.00 0.00 0.00 91 1023.2
20260830051004 64 0 0.0 0.0 0.00 0.00 0.00 91 1023.0
20260830050525 64 0 0.0 0.0 0.00 0.00 0.00 91 1023.0
20260830050005 64 0 0.0 0.0 0.00 0.00 0.00 91 1023.0
20260830045505 64 0 0.0 0.0 0.00 0.00 0.00 91 1023.0
20260830045006 64 0 0.0 0.0 0.00 0.00 0.00 91 1023.0
20260830044525 64 0 0.0 0.0 0.00 0.00 0.00 91 1023.0
20260830044004 64 0 0.0 0.0 0.00 0.00 0.00 90 1023.0
20260830043525 64 0 0.0 0.0 0.00 0.00 0.00 90 1023.0
20260830043004 64 0 0.0 0.0 0.00 0.00 0.00 90 1022.9
20260830042504 64 0 0.0 0.0 0.00 0.00 0.00 90 1023.0
20260830042004 64 0 0.0 0.0 0.00 0.00 0.00 89 1022.9
20260830041504 64 0 0.0 0.0 0.00 0.00 0.00 89 1022.9
20260830041025 65 0 0.0 0.0 0.00 0.00 0.00 89 1022.9
20260830040525 65 0 0.0 0.0 0.00 0.00 0.00 89 1022.9
20260830040027 65 0 0.0 0.0 0.00 0.00 0.00 89 1022.8
20260830035505 65 0 0.0 0.0 0.00 0.00 0.00 89 1022.8
20260830035004 65 0 0.0 0.0 0.00 0.00 0.00 89 1022.8
20260830034526 65 0 0.0 0.0 0.00 0.00 0.00 88 1022.8
20260830034004 65 0 0.0 0.0 0.00 0.00 0.00 88 1022.9
20260830033525 65 0 0.0 0.0 0.00 0.00 0.00 88 1022.8
20260830033025 65 0 0.0 0.0 0.00 0.00 0.00 88 1022.7
20260830032504 65 0 0.0 0.0 0.00 0.00 0.00 88 1022.7
20260830032025 66 0 0.0 0.0 0.00 0.00 0.00 87 1022.6
20260830031504 66 0 0.0 0.0 0.00 0.00 0.00 87 1022.6
20260830031004 66 0 0.0 0.0 0.00 0.00 0.00 87 1022.7
20260830030504 66 0 0.0 0.0 0.00 0.00 0.00 86 1022.6
20260830030004 66 0 0.0 0.0 0.00 0.00 0.00 86 1022.7
20260830025525 66 0 0.0 0.0 0.00 0.00 0.00 85 1022.7
20260830025026 66 0 0.0 0.0 0.00 0.00 0.00 85 1022.7
20260830024504 66 0 0.0 0.0 0.00 0.00 0.00 85 1022.7
20260830024006 66 0 0.0 0.0 0.00 0.00 0.00 85 1022.8
20260830023505 66 0 0.0 0.0 0.00 0.00 0.00 85 1022.8
20260830023025 67 0 0.0 0.0 0.00 0.00 0.00 84 1022.9
20260830022504 67 0 0.0 0.0 0.00 0.00 0.00 84 1022.8
20260830022005 67 0 0.0 0.0 0.00 0.00 0.00 84 1022.9
20260830021504 67 0 0.0 0.0 0.00 0.00 0.00 83 1022.7
20260830021005 67 0 0.0 0.0 0.00 0.00 0.00 83 1022.7
20260830020525 68 0 0.0 0.0 0.00 0.00 0.00 83 1022.7
20260830020004 68 0 0.0 0.0 0.00 0.00 0.00 82 1022.7
20260830015505 68 0 0.0 0.0 0.00 0.00 0.00 82 1022.6
20260830015004 68 0 0.0 0.0 0.00 0.00 0.00 80 1022.6